Miscellaneous Local Product
Issued by NWS North Platte, NE

Home | Current Version | Previous Version | Text Only | Print | Product List | Glossary On
Versions: 1 2 3 4 5 6 7 8 9 10 11 12 13 14 15 16 17 18 19 20 21 22 23 24 25 26 27 28 29 30 31 32 33 34 35 36 37 38 39 40 41 42 43 44 45 46 47 48 49 50
000
AXUS43 KLBF 091710
MISLBF


WESTERN AND NORTH CENTRAL NEBRASKA HOURLY WEATHER ROUNDUP
NATIONAL WEATHER SERVICE NORTH PLATTE NE
1200 PM CDT WED JUL 09 2014

***STATIONS NOT REPORTING VARIABLES SUCH AS SKY/WEATHER OR
PRESSURE ARE PROVIDED BY THE NEBRASKA DEPARTMENT OF
ROADS...RAWS...AND APRS NETWORKS...AND ARE NOT UNDER
NATIONAL WEATHER SERVICE QUALITY CONTROL***

...OBSERVATIONS IN AND NEAR THE EASTERN PANHANDLE OF NEBRASKA...

CITY           SKY/WX    TMP DP  RH WIND       PRES   REMARKS
PINE RIDGE     SUNNY     79  58  48 SE14      30.01F
CHADRON        SUNNY     80  57  45 VRB3      30.00F
ALLIANCE       PTSUNNY   79  56  45 S10       30.01F
SIDNEY         PTSUNNY   82  51  34 S16       30.05F
WHITECLAY        N/A     79  56  45 SE13        N/A
RUSHVILLE        N/A     83  55  37 SE16        N/A
GORDON           N/A     82  58  44 E22         N/A
CRESCENT LAKE    N/A     79  59  50 S9G18       N/A
LISCO            N/A     82  51  34 E6          N/A
BIG SPRINGS      N/A     75  60  60 W6          N/A
$$

...OBSERVATIONS IN NORTH CENTRAL NEBRASKA...

CITY           SKY/WX    TMP DP  RH WIND       PRES   REMARKS
VALENTINE      CLOUDY    69  56  62 SE8       30.08F
THEDFORD       CLOUDY    68  58  69 NE9       30.12R THUNDER
AINSWORTH      LGT RAIN  68  59  73 S5        30.11R
O`NEILL        PTSUNNY   79  48  33 SW6       30.08F
ORD            PTSUNNY   77  56  48 S13       30.08S
BROKEN BOW     MOSUNNY   77  55  46 S15       30.09S
BROWNLEE         N/A     76  53  43 SE16        N/A
SPRINGVIEW       N/A     69  65  87 CALM        N/A
ROSE             N/A     74  62  66 E5          N/A
NEWPORT          N/A     69  62  78 W12         N/A
SARGENT          N/A     77  56  48 CALM        N/A
COMSTOCK         N/A     83  62  48 S13         N/A
CHAMBERS         N/A     78  60  53 SW5         N/A
$$

...OBSERVATIONS IN SOUTHWEST NEBRASKA AND FAR NORTHEAST COLORADO...

CITY           SKY/WX    TMP DP  RH WIND       PRES   REMARKS
WRAY           FAIR      85  58  39 CALM      30.10R
HOLYOKE        FAIR      79  59  50 E6        30.12F
IMPERIAL       PTSUNNY   82  56  40 S12       30.11R
OGALLALA       CLOUDY    74  58  56 S14       30.04F
NORTH PLATTE   MOSUNNY   80  59  48 S12       30.08S
MCCOOK         MOSUNNY   83  57  41 S15       30.07S
LEXINGTON      SUNNY     82  58  43 SE14      30.08F
PAXTON           N/A     78  60  54 S9          N/A
SUTHERLAND       N/A     83  62  48 S12         N/A
BRADY            N/A     79  62  55 CALM        N/A
GOTHENBURG       N/A     77  54  44 SE9         N/A
CALLAWAY         N/A     76  62  62 S15         N/A
$$

...NORTH PLATTE AREA...

CITY           SKY/WX    TMP DP  RH WIND       PRES   REMARKS
AIRPORT        MOSUNNY   80  59  48 S12       30.08S
INDIAN HILLS     N/A     82  58  43 S10G17      N/A
$$

...SOME WEATHER OBSERVATIONS FROM AROUND THE REGION...

CITY           SKY/WX    TMP DP  RH WIND       PRES   REMARKS
DENVER         PTSUNNY   88  43  20 CALM      30.10F
LARAMIE        SUNNY     79  41  25 NW8G21    30.22F
CHEYENNE       SUNNY     80  55  42 E14       30.16F
SCOTTSBLUFF    PTSUNNY   72  60  66 NW12      30.05R
RAPID CITY     SUNNY     74  57  55 SE7       30.06F
PIERRE         SUNNY     77  52  41 S3        30.03F
WINNER         PTSUNNY   80  53  39 SE7       30.05F
SIOUX FALLS    MOSUNNY   77  56  48 SW6       30.05S
OMAHA          SUNNY     78  57  48 S7        30.07F
GRAND ISLAND   PTSUNNY   79  58  48 S10       30.10S
KANSAS CITY    SUNNY     80  63  55 VRB5      30.09S
WICHITA        MOSUNNY   83  58  42 S8        30.08F
HAYS           SUNNY     82  57  42 S16G22    30.10S
LIBERAL        MOSUNNY   81  61  50 S16       30.12F
GOODLAND       MOSUNNY   80  61  52 S23       30.09F
$$



USA.gov is the U.S. government's official web portal to all federal, state and local government web resources and services.